Theta_e
317 317 317 317 317 317 317 318 318 318 319 319 318 318 318 319 318 309 301 306 310 329 324 308 304 302 301 298 302 299 292 287 291 292 294 300 298 302 305 304 306 331 332 335 339
317 317 317 317 316 316 316 317 318 318 319 319 319 318 319 320 306 304 315 325 331 332 303 303 298 298 295 296 299 298 290 292 296 296 295 298 296 301 303 303 311 327 332 334 337
316 316 316 316 316 316 315 316 317 318 318 319 319 319 319 316 297 297 329 330 332 325 305 303 300 297 293 291 296 296 294 297 299 300 299 299 299 303 300 300 303 311 326 330 332
316 316 316 316 316 315 315 315 316 317 317 318 319 319 319 307 288 302 338 334 333 317 304 301 297 291 290 290 293 293 297 299 298 300 298 298 300 301 301 303 307 307 323 331 329
316 316 315 315 315 315 316 315 315 316 316 317 319 319 309 296 299 313 334 336 316 305 303 297 293 291 290 291 293 291 294 296 298 298 297 299 299 299 299 305 306 307 329 329 329
316 316 315 315 315 315 315 315 315 314 315 316 320 318 301 292 301 321 324 311 306 301 299 297 295 295 293 293 293 296 294 295 295 295 296 297 297 298 301 303 305 314 329 328 329
315 315 315 315 315 315 315 315 314 314 315 317 321 314 302 298 311 316 313 307 304 304 299 298 299 298 297 293 294 294 291 294 293 294 294 297 294 295 301 301 302 303 323 323 325
315 315 315 315 315 315 315 314 313 314 315 319 321 310 297 305 308 311 308 305 305 304 302 302 301 297 295 296 296 291 289 287 291 294 297 296 290 298 300 299 300 301 303 306 315
315 314 314 314 314 315 314 313 315 316 319 321 308 302 297 312 309 312 309 305 308 306 304 308 302 297 297 292 289 288 284 285 290 293 294 293 291 298 300 298 298 299 300 301 302
314 314 313 313 314 313 312 312 321 318 318 318 314 300 301 300 310 311 308 308 306 303 301 298 294 292 289 290 283 285 284 285 286 292 293 289 292 295 297 298 298 299 299 300 300
314 313 312 312 312 312 307 304 297 296 306 298 299 300 302 307 312 307 308 306 304 299 292 294 290 288 291 292 293 290 287 287 290 293 291 290 291 294 296 296 296 297 298 298 299
313 313 312 312 311 311 302 298 301 300 294 302 304 303 306 306 301 303 308 301 298 293 294 291 288 294 295 292 291 289 286 287 290 292 292 290 291 294 295 296 296 296 297 301 304
312 312 312 311 310 303 297 301 303 298 292 296 299 300 300 303 299 300 303 300 296 292 292 290 293 296 294 291 290 288 287 287 289 292 291 289 288 291 295 295 299 301 302 303 304
311 311 311 310 303 299 299 303 303 299 286 291 298 299 302 302 298 306 307 301 295 293 292 291 294 295 292 292 292 286 292 292 291 288 285 290 282 288 292 292 299 299 301 302 304
310 311 310 309 299 298 301 303 301 299 279 296 297 302 299 295 298 301 304 301 295 295 294 292 293 292 291 293 294 292 295 292 292 287 284 286 283 286 289 291 296 300 302 303 305
310 310 309 303 298 302 303 301 299 287 280 293 297 295 295 297 298 300 299 300 299 294 294 294 297 295 294 295 295 295 293 291 286 285 280 285 285 283 291 295 297 301 302 304 305
309 308 305 305 300 303 301 297 285 281 293 290 291 295 293 292 295 296 293 290 288 286 286 291 290 293 295 290 292 293 287 281 280 279 280 286 283 287 298 300 300 299 301 303 305
306 305 303 306 304 302 297 290 280 289 288 293 292 293 289 291 293 294 291 287 290 289 287 287 286 290 294 290 287 287 288 282 278 279 281 288 283 293 301 302 303 303 303 304 305
304 299 302 303 304 298 294 283 282 286 290 289 290 288 288 291 292 293 291 289 289 289 285 285 286 293 294 293 292 288 283 286 283 283 281 284 292 298 301 301 302 302 304 303 305
293 295 299 305 299 296 290 287 287 291 292 290 284 288 284 287 289 290 289 292 291 292 289 287 282 289 293 293 292 289 291 285 284 278 278 282 285 291 296 298 299 299 300 301 304
293 294 302 304 299 292 284 285 290 293 293 289 286 286 287 286 287 288 290 295 296 293 293 291 285 284 290 285 283 285 285 286 287 284 276 277 281 299 298 299 299 300 300 300 301
291 289 300 299 290 286 285 289 295 292 293 292 290 288 286 287 285 287 288 291 295 292 288 290 288 283 286 289 293 291 288 285 280 278 282 281 282 299 298 299 301 302 303 303 302
288 289 300 297 284 284 288 291 293 292 290 290 289 290 289 286 282 286 289 294 294 291 287 286 282 279 279 282 286 285 286 286 282 280 278 277 280 292 291 292 294 295 297 299 303
292 288 291 291 288 285 285 287 288 294 290 290 289 289 287 285 286 284 288 292 294 294 297 291 282 282 279 279 282 281 285 285 281 276 277 278 280 284 289 290 292 294 296 299 301
290 287 288 284 287 286 284 287 287 286 290 289 286 288 285 281 284 284 287 289 292 295 290 285 279 280 281 284 286 286 285 284 281 281 278 280 281 285 289 290 292 295 297 297 298
289 288 288 286 287 286 286 283 285 287 287 286 285 288 287 283 284 281 284 284 285 289 286 285 281 282 281 285 285 283 284 284 283 283 282 282 282 290 291 291 291 293 295 295 296
290 290 289 287 285 283 283 285 286 286 289 290 287 285 285 287 289 288 288 287 286 284 285 284 281 280 278 282 281 278 282 284 284 286 285 281 284 290 289 290 291 292 294 294 295
Wind_Speed
20 20 20 19 18 18 18 16 14 13 12 11 10 11 12 12 11 2 7 10 7 6 9 7 4 4 4 2 4 4 5 2 4 6 6 4 4 4 3 5 6 4 1 2 8
21 21 21 21 20 19 18 17 15 13 12 10 10 10 10 9 2 7 10 7 5 13 6 7 4 6 3 3 1 5 5 10 6 5 3 5 1 5 5 8 4 4 5 8 12
21 21 21 21 21 19 19 18 16 14 12 11 9 8 7 5 4 7 5 11 10 8 6 4 5 5 4 2 3 5 6 7 6 8 4 4 4 3 2 8 5 6 3 8 10
22 22 21 21 21 20 19 18 17 15 13 11 9 7 6 1 3 1 3 13 13 6 6 6 4 5 5 6 5 2 6 6 4 5 4 5 2 7 7 11 9 6 8 8 10
22 22 22 21 21 20 19 19 18 16 14 12 8 5 2 2 11 3 11 13 8 6 7 6 5 6 7 5 5 5 5 4 7 8 7 1 7 7 7 12 11 7 6 9 10
22 23 23 22 21 20 19 18 17 16 13 11 7 2 1 4 4 6 8 7 6 6 6 7 9 7 5 3 4 7 4 5 6 6 4 5 5 5 7 5 8 2 10 9 11
22 23 24 24 22 22 21 18 17 16 12 9 6 3 2 16 5 5 8 6 6 6 6 4 6 4 6 3 2 1 4 6 3 1 3 7 4 5 8 5 9 9 7 7 9
23 24 24 25 25 23 22 20 19 15 8 6 9 2 9 4 2 5 4 3 4 4 2 5 6 4 2 3 6 3 5 2 5 2 4 5 7 8 7 2 6 9 9 8 12
24 24 24 25 25 25 23 22 14 2 6 11 4 3 11 3 3 6 8 5 5 2 2 4 4 3 4 5 5 6 2 2 7 3 2 3 5 8 10 4 8 7 8 9 9
27 26 25 26 25 24 25 8 7 8 5 3 3 2 6 3 3 4 3 4 4 5 5 4 4 3 3 5 5 4 1 3 4 5 5 2 9 7 7 4 7 8 7 8 9
28 28 28 27 26 21 10 2 4 3 1 7 7 5 5 5 3 4 4 7 2 3 5 2 4 6 9 7 6 4 2 5 5 6 2 6 6 12 8 5 8 7 7 8 9
29 29 29 28 25 23 1 4 7 4 10 11 18 12 10 4 5 2 8 6 6 7 4 4 5 10 5 4 5 4 3 7 10 1 6 5 9 10 8 7 3 7 7 8 10
30 30 29 28 26 3 2 3 3 3 2 9 4 4 5 9 9 11 11 5 6 6 7 8 7 7 7 4 4 4 5 5 9 5 4 2 6 5 5 1 7 7 6 6 9
30 30 28 29 4 5 3 4 7 4 5 9 6 5 1 4 4 7 8 7 3 12 7 5 3 6 5 5 8 3 9 8 6 3 3 3 4 6 7 3 8 11 12 12 13
31 29 26 9 3 2 6 10 7 4 4 10 7 2 2 2 8 6 1 4 10 7 7 9 6 4 4 7 7 9 5 7 3 4 3 3 5 9 3 4 7 12 13 12 12
33 29 21 2 0 7 8 9 3 7 5 8 6 9 8 7 9 5 7 10 2 4 1 6 1 3 2 2 2 3 2 5 5 4 1 7 6 4 5 6 6 11 11 12 13
34 29 10 1 4 7 6 4 6 3 6 9 7 8 6 8 11 10 6 10 5 3 1 2 4 3 5 3 6 7 6 3 4 2 6 3 4 2 4 4 5 8 11 12 10
34 22 3 4 6 6 4 7 3 2 3 4 5 5 6 8 7 9 4 7 6 6 4 2 1 9 8 4 0 4 3 6 6 3 3 5 1 1 2 4 5 6 7 7 10
24 5 4 5 7 2 7 6 2 2 4 6 5 6 5 6 5 5 5 3 5 7 5 3 3 3 8 5 4 3 5 2 6 3 3 2 3 1 1 4 6 7 8 9 10
4 4 5 13 6 5 7 2 1 2 4 3 3 3 5 7 5 4 1 2 2 6 2 4 2 3 3 4 9 6 3 1 3 3 2 4 3 5 2 5 6 6 7 10 11
4 5 5 14 4 8 4 1 3 3 4 5 3 3 1 3 3 1 3 2 4 3 8 5 5 4 5 4 2 4 3 4 3 3 5 1 3 3 3 3 6 6 5 6 7
4 4 5 7 7 2 2 5 5 4 4 3 2 3 2 4 3 2 2 5 7 2 4 2 5 3 3 4 4 3 2 3 5 3 2 4 5 4 4 6 6 10 7 8 5
3 4 6 5 5 4 6 5 2 5 4 4 4 3 4 1 3 2 2 3 5 4 4 4 2 3 5 5 4 3 1 2 5 3 4 6 4 3 6 7 6 8 13 11 10
3 5 6 6 1 3 4 4 5 3 1 3 3 5 5 4 3 3 5 4 6 4 7 5 3 4 8 4 3 1 2 2 4 3 3 5 5 4 7 8 9 8 8 12 8
3 1 3 5 4 3 1 2 4 4 5 6 3 3 1 3 3 1 3 4 4 6 4 5 3 2 2 2 1 3 4 5 4 6 4 6 6 4 4 6 6 5 7 9 11
1 2 3 3 3 4 4 2 3 5 4 4 2 3 3 3 2 2 2 0 1 4 3 2 3 1 2 3 4 5 6 6 7 6 5 5 7 2 4 6 7 8 10 11 11
1 2 4 2 3 1 1 3 4 4 2 1 1 2 3 4 2 5 4 5 4 1 1 2 5 3 3 3 6 5 6 3 2 2 3 5 5 2 4 6 6 9 8 8 10
Wind_Direction
358 354 352 351 349 346 343 340 335 330 323 320 317 318 318 321 316 148 243 220 180 176 169 128 100 117 73 115 115 129 69 201 238 158 243 291 15 284 269 275 301 337 243 291 115
355 353 351 350 348 344 341 338 332 330 327 319 315 315 317 328 302 242 244 185 147 153 119 135 131 122 74 145 134 104 131 210 215 192 233 286 292 299 342 314 325 325 48 106 124
351 349 348 347 344 340 339 335 331 329 329 322 315 315 318 331 320 248 169 176 178 173 131 113 120 107 111 137 185 172 197 201 233 227 208 256 298 228 229 304 246 264 180 150 157
348 346 344 340 339 334 332 331 328 326 325 325 319 314 321 318 301 58 266 165 166 161 104 100 87 104 128 175 177 165 229 196 239 220 152 252 276 288 183 244 253 243 227 181 179
344 342 339 336 334 330 326 325 324 324 322 321 311 303 291 360 251 343 111 131 120 133 144 132 132 139 169 184 147 176 253 234 252 280 239 312 262 241 267 267 281 278 160 190 193
340 337 335 332 331 327 323 319 315 313 309 301 280 216 194 263 233 145 132 134 134 123 150 134 177 189 140 183 165 192 228 280 282 263 237 185 271 138 280 283 296 216 203 203 203
338 334 332 331 328 327 323 318 309 302 293 279 225 207 178 240 111 142 151 178 170 163 152 199 165 135 135 165 229 260 303 332 249 252 273 155 329 237 267 358 315 303 251 243 215
337 333 330 328 328 327 324 319 311 292 263 236 166 217 246 249 106 149 167 210 182 224 108 160 152 99 161 133 27 45 48 51 288 309 322 126 262 278 306 349 295 276 283 258 269
336 331 328 326 327 327 325 321 319 141 144 143 138 175 264 329 245 207 160 189 142 180 126 139 110 129 43 91 16 6 234 243 315 333 14 54 269 268 304 318 298 294 274 283 278
334 330 328 325 327 328 327 318 111 100 114 192 251 351 272 230 186 173 195 140 151 129 139 135 65 104 50 89 220 215 220 258 224 278 16 306 265 280 286 329 297 295 307 298 296
331 328 328 325 327 329 336 57 15 11 181 219 202 247 275 256 265 186 151 114 71 90 166 125 104 206 215 198 173 176 194 257 255 220 244 254 266 283 300 307 288 282 353 333 315
330 328 327 325 324 325 169 82 117 243 298 237 249 251 252 31 322 264 123 134 137 192 122 47 211 222 204 154 162 166 191 260 279 212 158 271 267 270 269 250 44 29 10 350 332
329 328 328 325 322 356 317 59 334 146 257 305 218 229 242 169 228 251 151 154 147 141 185 166 222 134 165 179 172 191 187 224 231 344 229 254 320 324 314 122 64 30 349 337 343
329 330 332 326 22 328 310 332 314 193 39 288 0 341 39 121 241 202 183 143 130 189 156 211 245 201 162 209 163 244 211 234 226 72 265 116 275 310 280 309 27 10 0 348 346
329 334 338 358 280 23 300 335 314 64 349 334 354 276 308 301 304 6 209 77 157 170 128 239 186 182 169 214 163 224 170 199 215 169 88 320 105 263 289 64 356 357 353 343 340
330 335 339 13 33 251 308 312 55 49 268 342 351 339 15 357 353 340 14 32 56 116 122 218 227 66 237 60 131 306 281 63 58 102 103 232 161 313 359 318 338 348 346 343 342
330 331 324 309 301 328 317 39 44 114 334 343 336 342 16 350 5 18 39 44 46 74 138 40 24 348 42 62 6 55 68 322 332 18 217 292 82 264 339 20 359 330 331 329 334
327 322 267 229 284 326 33 47 86 358 332 344 317 321 60 2 352 6 51 28 13 15 63 123 84 4 334 46 96 49 112 159 208 197 284 296 57 84 93 36 353 334 310 320 3
322 335 332 318 321 39 64 50 179 311 300 331 327 40 1 356 46 41 49 40 21 8 76 28 94 335 44 48 6 0 53 166 102 27 94 286 76 58 333 2 4 348 346 340 338
341 343 294 330 345 54 73 123 265 346 329 355 18 57 23 347 21 42 76 248 82 53 82 14 53 9 331 13 19 54 343 87 18 186 237 293 205 150 345 344 339 353 337 332 336
28 14 281 343 44 46 93 301 320 324 23 17 321 310 32 14 309 281 298 148 169 158 95 76 50 282 20 49 130 353 351 37 98 119 162 185 260 181 218 287 293 306 300 297 312
7 351 317 347 50 34 42 320 303 334 1 320 79 15 41 22 316 283 292 9 332 100 124 120 154 218 254 294 223 143 189 161 124 254 243 153 256 62 16 331 316 309 319 298 275
9 278 320 40 70 351 317 313 320 352 352 333 13 45 13 3 328 330 29 349 37 70 148 180 46 58 350 345 353 61 10 101 89 60 221 162 243 84 8 353 345 347 341 331 299
19 350 329 37 37 77 3 291 323 5 83 352 58 51 25 6 0 323 11 1 353 88 84 100 119 181 201 199 142 196 324 327 129 120 248 226 286 298 349 342 338 353 345 358 351
29 272 180 321 346 351 260 307 317 326 7 28 65 27 299 289 326 45 360 344 9 352 58 89 164 190 230 251 240 218 228 250 215 226 183 261 267 271 332 326 324 326 348 7 8
69 45 359 276 324 339 9 356 330 331 20 331 44 329 343 214 231 266 0 358 274 356 62 24 155 119 256 270 224 248 245 237 237 242 234 231 271 108 312 347 353 334 340 348 357
339 4 111 305 352 20 268 317 320 357 304 101 351 329 290 254 240 245 235 260 245 290 117 71 131 98 260 340 327 291 215 186 246 247 197 206 232 37 334 329 319 315 309 327 341